Location: Newark
(37.9128°N, 122.4756°W)
Time: 02:07:38
(UTC+00:00)

X-37B - Pass Details

Date: 12 March 2021
Orbit: 380 x 394 km, 45.0° (Epoch: 07 April)

Event Time Altitude Azimuth Distance (km) Brightness Sun altitude
Rises 04:29:05 0° 263° (W) 2,268 5.5 -27.1°
Reaches altitude 10° 04:31:15 10° 272° (W) 1,418 4.3 -27.5°
Enters shadow 04:32:17 18° 282° (WNW) 1,042 3.5 -27.7°
